Weather History for Provincetown, MA

Change the Weather History Date:

Saturday, April 5, 2014

  Actual Average Record
Temperature  
Mean Temperature 44 °F -  
Max Temperature 50 °F 45 °F 57 °F (2011)
Min Temperature 39 °F 35 °F 28 °F (2002)
Degree Days  
Heating Degree Days 20    
Moisture  
Dew Point 37 °F    
Average Humidity 80    
Maximum Humidity 100    
Minimum Humidity 56    
Precipitation  
Precipitation 0.07 in - - ()
Sea Level Pressure  
Sea Level Pressure 29.76 in    
Wind  
Wind Speed 10 mph (NW)    
Max Wind Speed 24 mph    
Max Gust Speed 32 mph    
Visibility 7 miles    
Events      
Averages and records for this station are not official NWS values.
T = Trace of Precipitation, MM = Missing Value Source: NWS Daily Summary

Daily Weather History Graph

Daily Weather History Graph

Search for Another Location

Airport:

Trip Planner

Search our weather history database for the weather conditions in past years. The results will help you decide how hot, cold, wet, or windy it might be!

Date:

Astronomy

Apr. 05, 2014 Rise Set
Actual Time 6:16 AM EDT 7:10 PM EDT
Civil Twilight 5:48 AM EDT 7:39 PM EDT
Nautical Twilight 5:14 AM EDT 8:13 PM EDT
Astronomical Twilight 4:39 AM EDT 8:48 PM EDT
Moon 10:18 AM EDT (4/5) 12:21 AM EDT (4/5)
Length of Visible Light 13h 50m
Length of Day
12h 54m
Waxing Crescent, 34% of the Moon is Illuminated
Apr 5
Waxing Crescent
Apr 7
First Quarter
Apr 15
Full
Apr 22
Last Quarter
Apr 29
New

Hourly Weather History & Observations

Time (EDT) Temp. Windchill Dew Point Humidity Pressure Visibility Wind Dir Wind Speed Gust Speed Precip Events Conditions
12:15 AM 39.2 °F 33.0 °F 37.4 °F 93% 29.88 in 4.0 mi ESE 9.2 mph 16.1 mph N/A   Overcast
12:35 AM 39.2 °F 33.6 °F 37.4 °F 93% 29.86 in 5.0 mi East 8.1 mph - N/A   Overcast
12:55 AM 39.2 °F 31.2 °F 37.4 °F 93% 29.84 in 5.0 mi East 13.8 mph 19.6 mph N/A   Overcast
1:15 AM 39.2 °F 37.0 °F 37.4 °F 93% 29.87 in 4.0 mi NNE 3.5 mph - N/A   Mostly Cloudy
1:35 AM 39.2 °F 32.5 °F 39.2 °F 100% 29.83 in 3.0 mi East 10.4 mph - N/A   Mostly Cloudy
1:55 AM 39.2 °F 32.5 °F 37.4 °F 93% 29.81 in 4.0 mi East 10.4 mph - N/A   Overcast
2:15 AM 41.0 °F 33.9 °F 39.2 °F 93% 29.79 in 6.0 mi East 12.7 mph - N/A   Overcast
2:35 AM 41.0 °F 35.8 °F 39.2 °F 93% 29.78 in 6.0 mi ENE 8.1 mph - N/A   Overcast
2:55 AM 41.0 °F 33.9 °F 39.2 °F 93% 29.76 in 4.0 mi East 12.7 mph - N/A   Overcast
3:15 AM 41.0 °F 33.5 °F 39.2 °F 93% 29.73 in 3.0 mi East 13.8 mph - N/A   Overcast
3:35 AM 41.0 °F 36.4 °F 39.2 °F 93% 29.73 in 5.0 mi ENE 6.9 mph - N/A   Overcast
3:55 AM 41.0 °F 35.2 °F 41.0 °F 100% 29.71 in 5.0 mi East 9.2 mph - N/A   Overcast
4:15 AM 42.8 °F 38.6 °F 39.2 °F 87% 29.69 in 5.0 mi East 6.9 mph - N/A   Overcast
4:35 AM 42.8 °F 40.1 °F 41.0 °F 93% 29.68 in 5.0 mi ESE 4.6 mph - N/A   Overcast
4:55 AM 44.6 °F 42.2 °F 42.8 °F 93% 29.67 in 5.0 mi ESE 4.6 mph - N/A   Overcast
5:15 AM 46.4 °F 45.2 °F 44.6 °F 93% 29.65 in 7.0 mi South 3.5 mph - N/A   Overcast
5:35 AM 41.0 °F - 41.0 °F 100% 29.67 in 3.0 mi Calm Calm - N/A   Overcast
5:55 AM 41.0 °F 38.0 °F 39.2 °F 93% 29.66 in 1.8 mi NNW 4.6 mph - N/A   Overcast
6:15 AM 41.0 °F - 39.2 °F 93% 29.66 in 1.5 mi Calm Calm - N/A   Overcast
6:35 AM 41.0 °F - 39.2 °F 93% 29.67 in 1.5 mi Calm Calm - N/A   Overcast
6:55 AM 41.0 °F 39.0 °F 39.2 °F 93% 29.67 in 0.5 mi NW 3.5 mph - N/A   Overcast
7:15 AM 42.8 °F - 41.0 °F 93% 29.67 in 0.5 mi Calm Calm - N/A   Overcast
7:35 AM 41.0 °F 36.4 °F 39.2 °F 93% 29.67 in 0.8 mi West 6.9 mph - N/A   Overcast
7:55 AM 41.0 °F 34.7 °F 39.2 °F 93% 29.68 in 0.8 mi West 10.4 mph - N/A   Overcast
8:35 AM 41.0 °F 33.5 °F 39.2 °F 93% 29.70 in 0.2 mi WNW 13.8 mph 20.7 mph N/A   Overcast
8:55 AM 39.2 °F 32.0 °F 39.2 °F 100% 29.69 in 0.2 mi WNW 11.5 mph 19.6 mph N/A   Overcast
9:15 AM 39.2 °F 30.8 °F 39.2 °F 100% 29.70 in 0.2 mi WNW 15.0 mph - N/A   Overcast
9:35 AM 41.0 °F 33.5 °F 39.2 °F 93% 29.71 in 0.2 mi WNW 13.8 mph - N/A   Overcast
9:55 AM 41.0 °F 33.9 °F 39.2 °F 93% 29.72 in 0.2 mi WNW 12.7 mph 18.4 mph N/A   Overcast
10:15 AM 39.2 °F 31.6 °F 37.4 °F 93% 29.72 in 1.0 mi WNW 12.7 mph - N/A   Overcast
10:35 AM 41.0 °F 33.5 °F 39.2 °F 93% 29.72 in 1.5 mi WNW 13.8 mph - N/A   Overcast
10:55 AM 41.0 °F 33.9 °F 39.2 °F 93% 29.72 in 7.0 mi WNW 12.7 mph - N/A   Overcast
11:15 AM 42.8 °F 37.0 °F 41.0 °F 93% 29.72 in 10.0 mi WNW 10.4 mph - 0.01 in   Overcast
11:35 AM 42.8 °F 37.5 °F 39.2 °F 87% 29.72 in 10.0 mi WNW 9.2 mph - 0.01 in   Overcast
11:55 AM 42.8 °F 38.0 °F 39.2 °F 87% 29.72 in 10.0 mi WNW 8.1 mph - 0.02 in   Scattered Clouds
12:15 PM 42.8 °F 37.5 °F 39.2 °F 87% 29.72 in 10.0 mi NW 9.2 mph - N/A   Partly Cloudy
12:35 PM 44.6 °F 40.2 °F 39.2 °F 81% 29.72 in 10.0 mi NW 8.1 mph - N/A   Clear
12:55 PM 46.4 °F 42.4 °F 39.2 °F 76% 29.73 in 10.0 mi WNW 8.1 mph - N/A   Mostly Cloudy
1:15 PM 46.4 °F 41.5 °F 39.2 °F 76% 29.72 in 10.0 mi WNW 10.4 mph - N/A   Scattered Clouds
1:35 PM 46.4 °F 41.9 °F 39.2 °F 76% 29.72 in 10.0 mi WNW 9.2 mph - N/A   Partly Cloudy
1:55 PM 48.2 °F - 41.0 °F 76% 29.73 in 10.0 mi WNW 11.5 mph - N/A   Clear
2:15 PM 48.2 °F - 39.2 °F 71% 29.72 in 10.0 mi NW 9.2 mph - N/A   Mostly Cloudy
2:35 PM 48.2 °F - 39.2 °F 71% 29.72 in 10.0 mi NW 5.8 mph - N/A   Overcast
2:55 PM 50.0 °F - 39.2 °F 66% 29.72 in 10.0 mi NW 8.1 mph - N/A   Overcast
3:15 PM 48.2 °F - 37.4 °F 66% 29.72 in 10.0 mi WNW 6.9 mph - N/A   Overcast
3:35 PM 48.2 °F - 37.4 °F 66% 29.73 in 10.0 mi WNW 6.9 mph - N/A   Overcast
3:55 PM 50.0 °F - 37.4 °F 62% 29.73 in 10.0 mi West 10.4 mph - N/A   Overcast
4:15 PM 50.0 °F - 37.4 °F 62% 29.75 in 10.0 mi West 9.2 mph - N/A   Mostly Cloudy
4:35 PM 48.2 °F - 35.6 °F 62% 29.75 in 10.0 mi West 9.2 mph - N/A   Overcast
4:55 PM 46.4 °F 41.1 °F 35.6 °F 66% 29.75 in 10.0 mi West 11.5 mph - N/A   Overcast
5:15 PM 46.4 °F 41.1 °F 35.6 °F 66% 29.76 in 10.0 mi West 11.5 mph - N/A   Overcast
5:35 PM 44.6 °F 40.2 °F 35.6 °F 71% 29.77 in 10.0 mi WNW 8.1 mph - N/A   Overcast
5:55 PM 44.6 °F 40.2 °F 35.6 °F 71% 29.77 in 10.0 mi WNW 8.1 mph - N/A   Overcast
6:15 PM 44.6 °F 38.8 °F 33.8 °F 66% 29.78 in 10.0 mi WNW 11.5 mph - N/A   Mostly Cloudy
6:35 PM 44.6 °F 38.4 °F 33.8 °F 66% 29.78 in 10.0 mi WNW 12.7 mph - N/A   Partly Cloudy
6:55 PM 44.6 °F 39.7 °F 33.8 °F 66% 29.79 in 10.0 mi WNW 9.2 mph - N/A   Clear
7:15 PM 44.6 °F 38.8 °F 33.8 °F 66% 29.80 in 10.0 mi WNW 11.5 mph - N/A   Clear
7:35 PM 42.8 °F 37.0 °F 33.8 °F 70% 29.81 in 10.0 mi WNW 10.4 mph - 0.01 in   Mostly Cloudy
7:55 PM 42.8 °F 36.6 °F 33.8 °F 70% 29.83 in 10.0 mi WNW 11.5 mph 16.1 mph 0.01 in   Partly Cloudy
8:15 PM 42.8 °F 34.8 °F 30.2 °F 61% 29.84 in 10.0 mi WNW 17.3 mph 20.7 mph 0.01 in   Clear
8:35 PM 42.8 °F 34.8 °F 30.2 °F 61% 29.85 in 10.0 mi NW 17.3 mph 23.0 mph 0.01 in   Clear
8:55 PM 42.8 °F 34.0 °F 30.2 °F 61% 29.87 in 10.0 mi NW 20.7 mph 27.6 mph 0.01 in   Clear
9:15 PM 42.8 °F 34.0 °F 28.4 °F 57% 29.88 in 10.0 mi WNW 20.7 mph 29.9 mph N/A   Clear
9:35 PM 41.0 °F 31.4 °F 28.4 °F 61% 29.89 in 10.0 mi WNW 21.9 mph 26.5 mph N/A   Clear
9:55 PM 41.0 °F 31.4 °F 28.4 °F 61% 29.90 in 10.0 mi WNW 21.9 mph 27.6 mph N/A   Clear
10:15 PM 39.2 °F 29.0 °F 26.6 °F 61% 29.90 in 10.0 mi WNW 21.9 mph 31.1 mph N/A   Clear
10:35 PM 39.2 °F 30.2 °F 28.4 °F 65% 29.91 in 10.0 mi WNW 17.3 mph 23.0 mph N/A   Clear
10:55 PM 39.2 °F 29.8 °F 28.4 °F 65% 29.92 in 10.0 mi WNW 18.4 mph 26.5 mph 0.02 in   Clear
11:15 PM 39.2 °F 28.5 °F 26.6 °F 61% 29.92 in 10.0 mi WNW 24.2 mph 32.2 mph N/A   Clear
11:35 PM 39.2 °F 29.3 °F 24.8 °F 56% 29.93 in 10.0 mi WNW 20.7 mph 26.5 mph 0.01 in   Clear
11:55 PM 39.2 °F 30.5 °F 26.6 °F 61% 29.93 in 10.0 mi WNW 16.1 mph 28.8 mph 0.01 in   Clear